Powrót do katalogu

STARLINK-31428

AktywnyŁącznośćVLEO
NORAD 59367·PAYLOAD·🇺🇸 United States

Wystrzelony Mar 31, 2024 z Cape Canaveral Space Force Station

Loading…

Następne Przeloty (najbliższe 24 godziny)

TLE

ŚwieżeSource: CelesTrak SupGP

Epoka: Sep 14, 2026, 21:42 UTC

1 59367C 24060V   26257.90465278  .00028621  00000+0  10370-2 0  2573
2 59367  43.0007 271.0890 0001624 268.5624  65.4014 15.27552735    12

Śledź STARLINK-31428 w czasie rzeczywistym z AllMySat

Download on the App Store